Hourly Weather Barpeta

Today, 6 May, Thursday

Time Temperature Precipitation Wind Pressure Humidity
00:00 +24°C° 0 mm 3 mps 753 mmHg 88%
01:00 +24°C° 0.1 mm 3 mps 753 mmHg 89%
02:00 +24°C° 0.1 mm 3 mps 753 mmHg 89%
03:00 +24°C° 0.1 mm 3 mps 753 mmHg 89%
04:00 +24°C° 0.1 mm 3 mps 753 mmHg 88%
05:00 +24°C° 0.1 mm 3 mps 754 mmHg 87%
06:00 +24°C° 0 mm 3 mps 755 mmHg 86%
07:00 +26°C° 0 mm 3 mps 755 mmHg 79%
08:00 +27°C° 0 mm 4 mps 755 mmHg 71%
09:00 +29°C° 0 mm 5 mps 756 mmHg 63%
10:00 +30°C° 0 mm 5 mps 755 mmHg 58%
11:00 +32°C° 0 mm 5 mps 755 mmHg 53%
12:00 +35°C° 0 mm 4 mps 754 mmHg 45%
13:00 +34°C° 0.1 mm 4 mps 754 mmHg 45%
14:00 +34°C° 0.1 mm 3 mps 753 mmHg 46%
15:00 +34°C° 0.1 mm 3 mps 752 mmHg 47%
16:00 +31°C° 2.4 mm 3 mps 752 mmHg 59%
17:00 +28°C° 2.4 mm 3 mps 752 mmHg 70%
18:00 +26°C° 2.4 mm 3 mps 753 mmHg 82%
19:00 +26°C° 0.1 mm 2 mps 753 mmHg 83%
20:00 +25°C° 0.1 mm 2 mps 753 mmHg 83%
21:00 +25°C° 0.1 mm 2 mps 753 mmHg 83%
22:00 +25°C° 0.1 mm 2 mps 753 mmHg 83%
23:00 +25°C° 0.1 mm 2 mps 754 mmHg 82%

Tomorrow, 7 May, Friday

Time Temperature Precipitation Wind Pressure Humidity
00:00 +25°C° 0.1 mm 2 mps 754 mmHg 82%
01:00 +25°C° 0.1 mm 1 mps 754 mmHg 81%
02:00 +25°C° 0.1 mm 1 mps 753 mmHg 81%
03:00 +25°C° 0.1 mm 1 mps 753 mmHg 80%
04:00 +25°C° 0.3 mm 1 mps 754 mmHg 81%
05:00 +24°C° 0.3 mm 1 mps 754 mmHg 82%
06:00 +24°C° 0.3 mm 1 mps 755 mmHg 83%
07:00 +25°C° 0.1 mm 1 mps 755 mmHg 79%
08:00 +26°C° 0.1 mm 2 mps 755 mmHg 75%
09:00 +27°C° 0.1 mm 3 mps 756 mmHg 71%
10:00 +29°C° 0 mm 3 mps 755 mmHg 64%
11:00 +31°C° 0 mm 2 mps 755 mmHg 57%
12:00 +32°C° 0 mm 2 mps 754 mmHg 50%
13:00 +34°C° 0 mm 2 mps 753 mmHg 47%
14:00 +34°C° 0 mm 1 mps 752 mmHg 44%
15:00 +35°C° 0 mm 1 mps 751 mmHg 41%
16:00 +34°C° 0 mm 1 mps 751 mmHg 45%
17:00 +34°C° 0 mm 2 mps 751 mmHg 49%
18:00 +33°C° 0 mm 3 mps 750 mmHg 53%
19:00 +31°C° 0.5 mm 2 mps 751 mmHg 59%
20:00 +29°C° 0.5 mm 2 mps 752 mmHg 65%
21:00 +28°C° 0.5 mm 1 mps 752 mmHg 70%
22:00 +27°C° 0.5 mm 1 mps 752 mmHg 73%
23:00 +27°C° 0.5 mm 1 mps 753 mmHg 75%

Day after tomorrow, 8 May, Saturday

Time Temperature Precipitation Wind Pressure Humidity
00:00 +26°C° 0.5 mm 1 mps 753 mmHg 77%
01:00 +26°C° 1.1 mm 1 mps 753 mmHg 79%
02:00 +25°C° 1.1 mm 1 mps 752 mmHg 81%
03:00 +25°C° 1.1 mm 1 mps 752 mmHg 83%
04:00 +25°C° 0.5 mm 1 mps 753 mmHg 83%
05:00 +25°C° 0.5 mm 1 mps 753 mmHg 83%
06:00 +25°C° 0.5 mm 2 mps 753 mmHg 83%
07:00 +26°C° 0.9 mm 2 mps 754 mmHg 78%
08:00 +27°C° 0.9 mm 2 mps 754 mmHg 74%
09:00 +28°C° 0.9 mm 3 mps 755 mmHg 69%
10:00 +29°C° 0.1 mm 3 mps 754 mmHg 68%
11:00 +29°C° 0.1 mm 3 mps 754 mmHg 66%
12:00 +30°C° 0.1 mm 3 mps 754 mmHg 65%
13:00 +31°C° 0 mm 3 mps 753 mmHg 60%
14:00 +32°C° 0 mm 2 mps 752 mmHg 54%
15:00 +33°C° 0 mm 1 mps 750 mmHg 49%
16:00 +32°C° 0 mm 1 mps 750 mmHg 51%
17:00 +32°C° 0 mm 1 mps 750 mmHg 52%
18:00 +32°C° 0 mm 1 mps 750 mmHg 54%
19:00 +31°C° 0.2 mm 2 mps 750 mmHg 57%
20:00 +29°C° 0.2 mm 2 mps 751 mmHg 60%
21:00 +28°C° 0.2 mm 2 mps 751 mmHg 64%
22:00 +27°C° 0.4 mm 2 mps 751 mmHg 69%
23:00 +26°C° 0.4 mm 3 mps 752 mmHg 74%

9 May, Sunday

Time Temperature Precipitation Wind Pressure Humidity
00:00 +26°C° 0.4 mm 3 mps 752 mmHg 79%
01:00 +25°C° 0.6 mm 2 mps 752 mmHg 80%
02:00 +25°C° 0.6 mm 2 mps 752 mmHg 82%
03:00 +24°C° 0.6 mm 2 mps 752 mmHg 83%
04:00 +24°C° 0.4 mm 2 mps 752 mmHg 83%
05:00 +24°C° 0.4 mm 2 mps 752 mmHg 83%
06:00 +24°C° 0.4 mm 2 mps 752 mmHg 82%
07:00 +26°C° 0.2 mm 2 mps 753 mmHg 76%
08:00 +28°C° 0.2 mm 3 mps 753 mmHg 69%
09:00 +30°C° 0.2 mm 3 mps 753 mmHg 62%
10:00 +31°C° 0 mm 2 mps 753 mmHg 56%
11:00 +34°C° 0 mm 2 mps 752 mmHg 51%
12:00 +36°C° 0 mm 2 mps 751 mmHg 45%
13:00 +36°C° 0.3 mm 2 mps 750 mmHg 45%
14:00 +36°C° 0.3 mm 3 mps 749 mmHg 45%
15:00 +36°C° 0.3 mm 3 mps 748 mmHg 44%
16:00 +34°C° 2 mm 3 mps 748 mmHg 54%
17:00 +30°C° 2 mm 4 mps 748 mmHg 65%
18:00 +27°C° 2 mm 4 mps 748 mmHg 75%
19:00 +27°C° 0.6 mm 3 mps 749 mmHg 77%
20:00 +26°C° 0.6 mm 2 mps 749 mmHg 80%
21:00 +26°C° 0.6 mm 2 mps 750 mmHg 83%
22:00 +26°C° 0.4 mm 1 mps 750 mmHg 83%
23:00 +25°C° 0.4 mm 1 mps 750 mmHg 84%

10 May, Monday

Time Temperature Precipitation Wind Pressure Humidity
00:00 +25°C° 0.4 mm 1 mps 750 mmHg 85%
01:00 +25°C° 0.3 mm 1 mps 750 mmHg 86%
02:00 +25°C° 0.3 mm 1 mps 750 mmHg 87%
03:00 +24°C° 0.3 mm 1 mps 750 mmHg 88%
04:00 +24°C° 0.5 mm 1 mps 750 mmHg 88%
05:00 +24°C° 0.5 mm 1 mps 750 mmHg 88%
06:00 +24°C° 0.5 mm 1 mps 751 mmHg 88%
07:00 +26°C° 0.2 mm 2 mps 751 mmHg 82%
08:00 +27°C° 0.2 mm 2 mps 752 mmHg 77%
09:00 +28°C° 0.2 mm 3 mps 752 mmHg 71%
10:00 +30°C° 0 mm 3 mps 751 mmHg 65%
11:00 +31°C° 0 mm 3 mps 751 mmHg 60%
12:00 +33°C° 0 mm 3 mps 750 mmHg 55%
13:00 +31°C° 1.6 mm 3 mps 750 mmHg 60%
14:00 +30°C° 1.6 mm 2 mps 749 mmHg 65%
15:00 +29°C° 1.6 mm 2 mps 749 mmHg 70%
16:00 +29°C° 0.2 mm 2 mps 748 mmHg 70%
17:00 +29°C° 0.2 mm 2 mps 748 mmHg 70%
18:00 +29°C° 0.2 mm 2 mps 748 mmHg 70%
19:00 +28°C° 0.7 mm 2 mps 748 mmHg 75%
20:00 +27°C° 0.7 mm 2 mps 749 mmHg 80%
21:00 +25°C° 0.7 mm 2 mps 749 mmHg 84%
22:00 +25°C° 0.8 mm 2 mps 750 mmHg 86%
23:00 +25°C° 0.8 mm 2 mps 750 mmHg 87%

11 May, Tuesday

Time Temperature Precipitation Wind Pressure Humidity
00:00 +25°C° 0.8 mm 2 mps 750 mmHg 89%
01:00 +24°C° 0.7 mm 2 mps 750 mmHg 89%
02:00 +24°C° 0.7 mm 3 mps 750 mmHg 90%
03:00 +24°C° 0.7 mm 3 mps 750 mmHg 90%
04:00 +24°C° 0.7 mm 3 mps 750 mmHg 91%
05:00 +24°C° 0.7 mm 3 mps 750 mmHg 91%
06:00 +23°C° 0.7 mm 4 mps 750 mmHg 91%
07:00 +23°C° 0.6 mm 4 mps 751 mmHg 89%
08:00 +25°C° 0.6 mm 4 mps 751 mmHg 86%
09:00 +26°C° 0.6 mm 5 mps 752 mmHg 84%
10:00 +27°C° 0.1 mm 5 mps 751 mmHg 78%
11:00 +28°C° 0.1 mm 5 mps 751 mmHg 72%
12:00 +29°C° 0.1 mm 6 mps 751 mmHg 66%
13:00 +30°C° 0.5 mm 5 mps 750 mmHg 64%
14:00 +30°C° 0.5 mm 5 mps 749 mmHg 62%
15:00 +32°C° 0.5 mm 5 mps 748 mmHg 60%
16:00 +30°C° 0.5 mm 5 mps 748 mmHg 63%
17:00 +29°C° 0.5 mm 5 mps 747 mmHg 67%
18:00 +28°C° 0.5 mm 5 mps 747 mmHg 71%
19:00 +27°C° 1.2 mm 4 mps 748 mmHg 75%
20:00 +26°C° 1.2 mm 4 mps 749 mmHg 80%
21:00 +25°C° 1.2 mm 3 mps 750 mmHg 85%
22:00 +25°C° 1 mm 3 mps 750 mmHg 86%
23:00 +24°C° 1 mm 3 mps 750 mmHg 88%
Show more